Regional Weather Roundup
Issued by NWS

Home | Current Version | Previous Version | Graphics & Text | Print | Product List | Glossary On
Versions: 1 2 3 4 5 6 7 8 9 10 11 12 13 14 15 16 17 18 19 20 21 22 23 24 25 26 27 28 29 30 31 32 33 34 35 36 37 38 39 40 41 42 43 44 45 46 47 48 49 50
000
ASUS43 KOAX 271502
RWRNE

WEATHER ROUNDUP FOR NEBRASKA
NATIONAL WEATHER SERVICE OMAHA NE
1000 AM CDT WED MAY 27 2015

NOTES: SATELLITE DATA IS BEING USED TO AUGMENT CLOUD COVER ABOVE
       12000 FEET.
       "FAIR" INDICATES FEW OR NO CLOUDS BELOW 12,000 FEET WITH NO
       SIGNIFICANT WEATHER AND/OR OBSTRUCTIONS TO VISIBILITY.

  * THESE STATIONS DO NOT REPORT WEATHER SUCH AS RAIN...SNOW OR FOG.

NEZ001>004-019>022-054>056-271600-
NEBRASKA PANHANDLE

CITY           SKY/WX    TMP DP  RH WIND       PRES   REMARKS
SCOTTSBLUFF    PTSUNNY   60  53  77 SE9       30.04S
ALLIANCE       CLOUDY    60  51  72 S20       30.05S
CHADRON        MOSUNNY   63  54  72 S10       30.01F
SIDNEY         CLOUDY    55  52  89 S12       30.09R
$$

NEZ057>060-069>072-079>082-271600-
SOUTHWEST NEBRASKA

CITY           SKY/WX    TMP DP  RH WIND       PRES   REMARKS
NORTH PLATTE   PTSUNNY   64  53  67 SE5       30.10R
IMPERIAL       CLOUDY    62  50  64 MISG      30.10R
LEXINGTON      MOSUNNY   68  54  60 S9        30.10R
MCCOOK         PTSUNNY   66  50  56 SE10      30.09S
$$

NEZ005>010-023>029-035>040-094-271600-
NORTH CENTRAL NEBRASKA

CITY           SKY/WX    TMP DP  RH WIND       PRES   REMARKS
VALENTINE      PTSUNNY   66  51  58 SW9       30.06F
AINSWORTH      MOSUNNY   70  51  51 SW8       30.08S
BROKEN BOW     MOSUNNY   68  51  54 SW6       30.09S
ORD            SUNNY     69  56  62 VRB3      30.07S
$$

NEZ041-046>049-061>064-073>077-083>087-271600-
SOUTH CENTRAL NEBRASKA

CITY           SKY/WX    TMP DP  RH WIND       PRES   REMARKS
GRAND ISLAND   SUNNY     70  52  52 SW8       30.10R
AURORA         SUNNY     71  53  52 SW8       30.09R
HASTINGS       SUNNY     70  52  52 VRB5      30.10R
KEARNEY *      SUNNY     70  50  49 SE3       30.09F
$$

NEZ011>018-030>034-042>045-271600-
NORTHEAST NEBRASKA

CITY           SKY/WX    TMP DP  RH WIND       PRES   REMARKS
NORFOLK        SUNNY     70  55  59 NW3       30.06R
ALBION         SUNNY     69  55  60 CALM      30.08R
BLAIR          SUNNY     68  55  64 NW3       30.05S
COLUMBUS *     SUNNY     66  54  63 W5        30.08S
FREMONT        SUNNY     69  56  65 W5        30.06S
TEKAMAH        SUNNY     70  56  61 CALM      30.04S
$$

NEZ050>053-065>068-078-088>093-271600-
SOUTHEAST NEBRASKA

CITY           SKY/WX    TMP DP  RH WIND       PRES   REMARKS
LINCOLN        SUNNY     70  55  59 CALM      30.08R
OMAHA EPPLEY   SUNNY     69  56  62 CALM      30.06R
BEATRICE       SUNNY     70  56  62 SW3       30.09S
FALLS CITY     SUNNY     72  58  61 W6        30.07R
NEBRASKA CITY  SUNNY     69  55  59 W6        30.08R
PLATTSMOUTH    SUNNY     70  52  53 NW5       30.07R
$$

NEZ044-045-051>053-067-271600-
OMAHA AREA

CITY           SKY/WX    TMP DP  RH WIND       PRES   REMARKS
OMAHA EPPLEY   SUNNY     69  56  62 CALM      30.06R
BLAIR          SUNNY     68  55  64 NW3       30.05S
FREMONT        SUNNY     69  56  65 W5        30.06S
OFFUTT AFB     SUNNY     69  57  67 W3        30.05R
PLATTSMOUTH    SUNNY     70  52  53 NW5       30.07R
WAHOO          FAIR      70  56  60 SW3       30.07R
$$


USA.gov is the U.S. government's official web portal to all federal, state and local government web resources and services.